Location: ????
(33.1659°N, 35.6604°E)
Time: 00:39:04
(UTC+00:00)

deb Centaur AC-2 - Pass Details

Date: 20 September 2019
Orbit: 585 x 1364 km, 30.0° (Epoch: 21 October)

Event Time Altitude Azimuth Distance (km) Brightness Sun altitude
Rises 17:11:29 0° 266° (W) 2,819 8.7 -20.3°
Reaches altitude 10° 17:13:48 10° 262° (W) 1,897 7.5 -20.7°
Maximum altitude 17:18:00 56° 184° (S) 702 4.2 -21.6°
Enters shadow 17:18:23 53° 161° (SSE) 722 4.1 -21.7°
